Cambridge, MD

1:40 AM EDT on May 30, 2017 (GMT -0400)
Cambridge-Dorchester

Weather History for KCGE - March, 2014

Change the Weather History Date:

Monday, March 17, 2014

  Actual Average (KESN) Record (KESN)
Temperature  
Mean Temperature 31 °F -  
Max Temperature 32 °F 57 °F 72 °F (1963)
Min Temperature 30 °F 35 °F 21 °F (1950)
Degree Days  
Heating Degree Days 34    
Moisture  
Dew Point 26 °F    
Average Humidity 81    
Maximum Humidity 93    
Minimum Humidity 64    
Precipitation  
Precipitation 0.00 in - - ()
Sea Level Pressure  
Sea Level Pressure 30.01 in    
Wind  
Wind Speed 11 mph (NNE)    
Max Wind Speed 14 mph    
Max Gust Speed 23 mph    
Visibility 6 miles    
Events      
Averages and records for this station are not official NWS values.
T = Trace of Precipitation, MM = Missing Value Source: NWS Daily Summary

Daily Weather History Graph

Daily Weather History Graph

Search for Another Location

Airport or City:

Trip Planner

Search our weather history database for the weather conditions in past years. The results will help you decide how hot, cold, wet, or windy it might be!

Date:

Astronomy

Mar. 17, 2014 Rise Set
Actual Time 7:12 AM EDT 7:13 PM EDT
Civil Twilight 6:45 AM EDT 7:39 PM EDT
Nautical Twilight 6:15 AM EDT 8:10 PM EDT
Astronomical Twilight 5:43 AM EDT 8:41 PM EDT
Moon 8:26 PM EDT (3/17) 7:27 AM EDT (3/17)
Length of Visible Light 12h 53m
Length of Day
12h 00m
Full, 99% of the Moon is Illuminated
Mar 17
Full
Mar 23
Last Quarter
Mar 30
New
Apr 7
First Quarter
Apr 15
Full

Hourly Weather History & Observations

Time (EDT) Temp. Windchill Dew Point Humidity Pressure Visibility Wind Dir Wind Speed Gust Speed Precip Events Conditions
12:09 AM 32.0 °F 23.0 °F 30.2 °F 93% 30.04 in 2.0 mi NNE 11.5 mph - N/A   Overcast
12:29 AM 32.0 °F 23.0 °F 30.2 °F 93% 30.03 in 2.0 mi NNE 11.5 mph 18.4 mph N/A   Overcast
12:49 AM 32.0 °F 23.0 °F 30.2 °F 93% 30.01 in 1.8 mi NNE 11.5 mph 17.3 mph N/A   Overcast
1:09 AM 32.0 °F 22.5 °F 30.2 °F 93% 30.01 in 1.2 mi NE 12.7 mph 17.3 mph N/A   Overcast
1:29 AM 32.0 °F 24.2 °F 28.4 °F 87% 30.02 in 1.5 mi NE 9.2 mph - N/A   Overcast
1:49 AM 32.0 °F 24.8 °F 28.4 °F 87% 30.02 in 1.5 mi NE 8.1 mph - N/A   Overcast
2:09 AM 32.0 °F 24.8 °F 28.4 °F 87% 30.01 in 1.8 mi NNE 8.1 mph - N/A   Overcast
2:29 AM 32.0 °F 23.6 °F 28.4 °F 87% 30.02 in 1.5 mi NNE 10.4 mph 17.3 mph N/A   Overcast
2:49 AM 32.0 °F 23.6 °F 28.4 °F 87% 30.00 in 1.5 mi NNE 10.4 mph - N/A   Overcast
3:09 AM 32.0 °F 23.6 °F 28.4 °F 87% 30.00 in 1.8 mi NNE 10.4 mph - N/A   Overcast
3:29 AM 32.0 °F 25.6 °F 28.4 °F 87% 29.99 in 1.8 mi North 6.9 mph - N/A   Overcast
3:49 AM 32.0 °F 23.0 °F 28.4 °F 87% 29.98 in 1.0 mi NNE 11.5 mph 21.9 mph N/A   Overcast
4:09 AM 32.0 °F 24.8 °F 28.4 °F 87% 29.97 in 1.2 mi North 8.1 mph - N/A   Overcast
4:29 AM 32.0 °F 22.5 °F 28.4 °F 87% 29.98 in 1.0 mi North 12.7 mph 20.7 mph N/A   Overcast
4:49 AM 32.0 °F 24.2 °F 28.4 °F 87% 29.97 in 1.5 mi North 9.2 mph 16.1 mph N/A   Overcast
5:09 AM 30.2 °F 19.8 °F 26.6 °F 86% 29.98 in 1.5 mi North 13.8 mph 18.4 mph N/A   Overcast
5:29 AM 30.2 °F 20.8 °F 26.6 °F 86% 29.97 in 1.5 mi North 11.5 mph 17.3 mph N/A   Overcast
5:49 AM 30.2 °F 20.2 °F 26.6 °F 86% 29.97 in 1.5 mi North 12.7 mph 19.6 mph N/A   Overcast
6:09 AM 30.2 °F 20.8 °F 26.6 °F 86% 29.96 in 3.0 mi North 11.5 mph 17.3 mph N/A   Overcast
6:29 AM 30.2 °F 20.8 °F 26.6 °F 86% 29.96 in 4.0 mi North 11.5 mph 17.3 mph N/A   Overcast
6:49 AM 30.2 °F 21.3 °F 26.6 °F 86% 29.96 in 3.0 mi North 10.4 mph 18.4 mph N/A   Overcast
7:09 AM 30.2 °F 20.8 °F 26.6 °F 86% 29.95 in 2.0 mi NNE 11.5 mph 17.3 mph N/A   Overcast
7:29 AM 30.2 °F 21.3 °F 26.6 °F 86% 29.97 in 4.0 mi NNE 10.4 mph 18.4 mph N/A   Overcast
7:49 AM 32.0 °F 23.0 °F 28.4 °F 87% 29.98 in 4.0 mi NNE 11.5 mph 18.4 mph N/A   Overcast
8:09 AM 32.0 °F 22.5 °F 28.4 °F 87% 29.98 in 3.0 mi NNE 12.7 mph 17.3 mph N/A   Overcast
8:30 AM 32.0 °F 23.6 °F 28.4 °F 87% 29.98 in 2.0 mi NNE 10.4 mph 18.4 mph N/A   Overcast
8:50 AM 32.0 °F 22.5 °F 28.4 °F 87% 29.99 in 1.8 mi North 12.7 mph 18.4 mph N/A   Overcast
9:10 AM 32.0 °F 23.0 °F 28.4 °F 87% 29.99 in 2.5 mi NNE 11.5 mph 19.6 mph N/A   Overcast
9:30 AM 32.0 °F 23.0 °F 26.6 °F 80% 29.99 in 5.0 mi NNE 11.5 mph 18.4 mph N/A   Overcast
9:50 AM 32.0 °F 22.1 °F 28.4 °F 87% 29.99 in 3.0 mi NNE 13.8 mph 18.4 mph N/A   Overcast
10:10 AM 32.0 °F 23.6 °F 26.6 °F 80% 29.99 in 7.0 mi NNE 10.4 mph 23.0 mph N/A   Mostly Cloudy
10:30 AM 32.0 °F 22.5 °F 26.6 °F 80% 30.01 in 7.0 mi NNE 12.7 mph 17.3 mph N/A   Mostly Cloudy
10:50 AM 32.0 °F 23.6 °F 26.6 °F 80% 30.02 in 7.0 mi NNE 10.4 mph 18.4 mph N/A   Mostly Cloudy
11:10 AM 32.0 °F 22.5 °F 26.6 °F 80% 29.98 in 4.0 mi NNE 12.7 mph 17.3 mph N/A   Mostly Cloudy
11:30 AM 32.0 °F 22.1 °F 26.6 °F 80% 30.00 in 4.0 mi NNE 13.8 mph 19.6 mph N/A   Overcast
11:50 AM 32.0 °F 23.6 °F 26.6 °F 80% 30.00 in 5.0 mi North 10.4 mph 16.1 mph N/A   Mostly Cloudy
12:10 PM 32.0 °F 23.0 °F 26.6 °F 80% 29.99 in 4.0 mi North 11.5 mph 20.7 mph N/A   Overcast
12:30 PM 32.0 °F 22.5 °F 26.6 °F 80% 29.99 in 5.0 mi North 12.7 mph 18.4 mph N/A   Mostly Cloudy
12:50 PM 32.0 °F 22.5 °F 26.6 °F 80% 30.01 in 10.0 mi North 12.7 mph 18.4 mph N/A   Scattered Clouds
1:10 PM 32.0 °F 22.5 °F 26.6 °F 80% 30.02 in 7.0 mi North 12.7 mph 18.4 mph N/A   Mostly Cloudy
1:30 PM 32.0 °F 23.6 °F 26.6 °F 80% 29.99 in 5.0 mi North 10.4 mph 23.0 mph N/A   Overcast
1:50 PM 32.0 °F 23.6 °F 26.6 °F 80% 30.01 in 5.0 mi NNE 10.4 mph 19.6 mph N/A   Overcast
2:10 PM 32.0 °F 24.2 °F 26.6 °F 80% 30.00 in 7.0 mi North 9.2 mph 17.3 mph N/A   Mostly Cloudy
2:30 PM 30.2 °F 21.3 °F 23.0 °F 75% 30.02 in 7.0 mi North 10.4 mph 17.3 mph N/A   Mostly Cloudy
2:50 PM 30.2 °F 21.3 °F 23.0 °F 75% 30.01 in 10.0 mi NNE 10.4 mph - N/A   Mostly Cloudy
3:10 PM 30.2 °F 21.3 °F 24.8 °F 80% 30.00 in 10.0 mi NNE 10.4 mph - N/A   Overcast
3:30 PM 30.2 °F 20.8 °F 23.0 °F 75% 30.01 in 7.0 mi NNE 11.5 mph 16.1 mph N/A   Overcast
3:50 PM 30.2 °F 21.3 °F 23.0 °F 75% 30.01 in 10.0 mi NNE 10.4 mph - N/A   Overcast
4:10 PM 30.2 °F 20.8 °F 23.0 °F 75% 30.01 in 10.0 mi NNE 11.5 mph - N/A   Overcast
4:30 PM 32.0 °F 24.8 °F 26.6 °F 80% 30.01 in 10.0 mi NNE 8.1 mph - N/A   Overcast
4:50 PM 32.0 °F 22.1 °F 24.8 °F 75% 30.00 in 10.0 mi NNE 13.8 mph 17.3 mph N/A   Overcast
5:10 PM 32.0 °F 23.6 °F 24.8 °F 75% 30.01 in 10.0 mi NNE 10.4 mph - N/A   Mostly Cloudy
5:31 PM 32.0 °F 22.5 °F 24.8 °F 75% 30.02 in 10.0 mi NNE 12.7 mph 16.1 mph N/A   Overcast
5:51 PM 32.0 °F 24.2 °F 24.8 °F 75% 30.02 in 10.0 mi NNE 9.2 mph 17.3 mph N/A   Overcast
6:11 PM 32.0 °F 24.2 °F 24.8 °F 75% 30.03 in 10.0 mi NNE 9.2 mph - N/A   Overcast
6:31 PM 32.0 °F 23.6 °F 26.6 °F 80% 30.03 in 10.0 mi NNE 10.4 mph - N/A   Overcast
6:51 PM 32.0 °F 24.8 °F 26.6 °F 80% 30.03 in 10.0 mi NNE 8.1 mph - N/A   Overcast
7:11 PM 32.0 °F 24.8 °F 26.6 °F 80% 30.03 in 10.0 mi NNE 8.1 mph 16.1 mph N/A   Overcast
7:31 PM 32.0 °F 24.2 °F 26.6 °F 80% 30.03 in 10.0 mi NNE 9.2 mph - N/A   Overcast
7:51 PM 32.0 °F 23.6 °F 26.6 °F 80% 30.03 in 10.0 mi NNE 10.4 mph - N/A   Overcast
8:11 PM 32.0 °F 24.2 °F 26.6 °F 80% 30.03 in 7.0 mi NNE 9.2 mph - N/A   Overcast
8:31 PM 32.0 °F 26.4 °F 26.6 °F 80% 30.05 in 10.0 mi NNE 5.8 mph - N/A   Overcast
8:51 PM 32.0 °F 24.8 °F 26.6 °F 80% 30.06 in 10.0 mi NNE 8.1 mph - N/A   Overcast
9:11 PM 32.0 °F 24.2 °F 26.6 °F 80% 30.06 in 10.0 mi NNE 9.2 mph - N/A   Overcast
9:31 PM 32.0 °F 24.8 °F 24.8 °F 75% 30.07 in 10.0 mi NNE 8.1 mph - N/A   Overcast
9:51 PM 32.0 °F 25.6 °F 24.8 °F 75% 30.09 in 10.0 mi NNE 6.9 mph - N/A   Overcast
10:11 PM 32.0 °F 24.2 °F 23.0 °F 69% 30.09 in 10.0 mi NNE 9.2 mph - N/A   Overcast
10:31 PM 32.0 °F 24.2 °F 23.0 °F 69% 30.08 in 10.0 mi NNE 9.2 mph - N/A   Overcast
10:51 PM 32.0 °F 23.6 °F 23.0 °F 69% 30.08 in 10.0 mi NNE 10.4 mph - N/A   Mostly Cloudy
11:11 PM 32.0 °F 24.8 °F 23.0 °F 69% 30.08 in 10.0 mi NNE 8.1 mph - N/A   Mostly Cloudy
11:31 PM 32.0 °F 24.8 °F 21.2 °F 64% 30.09 in 10.0 mi NNE 8.1 mph - N/A   Mostly Cloudy
11:51 PM 32.0 °F 24.8 °F 21.2 °F 64% 30.07 in 10.0 mi NNE 8.1 mph - N/A   Overcast